« Back
NWS Peachtree City, Ga » Text Product » GA Regional Weather Roundup


Printer-friendly Version
Current Version              Previous Versions:   1  2  3  4  5  6  7  8  9  

Regional Weather Roundup

564
ASUS42 KFFC 251203
RWRGA
WEATHER ROUNDUP FOR GEORGIA
NATIONAL WEATHER SERVICE PEACHTREE CITY GA
800 AM EDT MON JUL 25 2016

NOTE: "FAIR" INDICATES FEW OR NO CLOUDS BELOW 12,000 FEET WITH NO
SIGNIFICANT WEATHER AND/OR OBSTRUCTIONS TO VISIBILITY.

* = USE WITH CAUTION. THE STATIONS MARKED WITH AN ASTERISK MAY NOT
REPORT WEATHER SUCH AS PRECIPITATION, FOG, OR THUNDER AND ARE NOT
QUALITY CONTROLLED BY NWS.

THE REMARK "TC" DENOTES TEMPERATURE READING IN DEGREES CELSIUS.

GAZ001>058-251300-
NORTH GEORGIA

CITY           SKY/WX    TMP DP  RH WIND       PRES   REMARKS
ATLANTA        MOSUNNY   80  71  74 W3        30.10R
6HR MIN TEMP:  76; 6HR MAX TEMP:  80;

ATHENS         SUNNY     78  73  84 SW3       30.08R
6HR MIN TEMP:  75; 6HR MAX TEMP:  79;

CHAMBLEE       SUNNY     77  72  84 CALM      30.10R
6HR MIN TEMP:  73; 6HR MAX TEMP:  77;

PEACHTREE CITY SUNNY     75  70  84 CALM      30.10R
6HR MIN TEMP:  70; 6HR MAX TEMP:  75;

ROME           SUNNY     75  72  90 CALM      30.08R
6HR MIN TEMP:  72; 6HR MAX TEMP:  77;

WEST ATLANTA   SUNNY     77  71  82 CALM      30.09R
6HR MIN TEMP:  72; 6HR MAX TEMP:  77;

CARTERSVILLE   MOSUNNY   73  71  93 CALM      30.10R
6HR MIN TEMP:  70; 6HR MAX TEMP:  73;



CITY           SKY/WX    TMP DP  RH WIND       PRES   REMARKS
DALTON*        SUNNY     73  73 100 CALM      30.09R
LAWRENCEVILLE* SUNNY     75  72  88 CALM      30.09R
MARIETTA       MOSUNNY   76  73  90 CALM      30.10R
KENNESAW*      SUNNY     75  70  83 CALM      30.07R
CANTON*        SUNNY     72  68  88 CALM      30.13R
BLAIRSVILLE*   FOG      N/A N/A N/A MISG      30.16R VSB 3/4
$$

GAZ059>098-102>109-251300-
CENTRAL GEORGIA

CITY           SKY/WX    TMP DP  RH WIND       PRES   REMARKS
AUGUSTA-BUSH   MOSUNNY   76  73  91 E3        30.07R
6HR MIN TEMP:  74; 6HR MAX TEMP:  78;

AUGUSTA-DANIEL MOSUNNY   79  71  76 S7        30.08S
6HR MIN TEMP:  79; 6HR MAX TEMP:  83;

COLUMBUS       SUNNY     78  72  81 CALM      30.07R
6HR MIN TEMP:  75; 6HR MAX TEMP:  82;

MACON          MOSUNNY   77  72  84 CALM      30.07R
6HR MIN TEMP:  74; 6HR MAX TEMP:  80;

ROBINS AFB     MOSUNNY   76  73  91 SE2       30.06R


CITY           SKY/WX    TMP DP  RH WIND       PRES   REMARKS
LAGRANGE*      SUNNY     75  75 100 CALM      30.09R
MILLEDGEVILLE* MOSUNNY   77  73  88 CALM      30.07S
$$

GAZ099>101-110>166-251300-
SOUTH GEORGIA

CITY           SKY/WX    TMP DP  RH WIND       PRES   REMARKS
SAVANNAH       MOSUNNY   78  74  87 CALM      30.08R
6HR MIN TEMP:  74; 6HR MAX TEMP:  79;

VALDOSTA       MOSUNNY   75  74  96 SE3       30.07R
6HR MIN TEMP:  73; 6HR MAX TEMP:  76;

ALMA           PTSUNNY   75  71  87 S3        30.08R
6HR MIN TEMP:  71; 6HR MAX TEMP:  75;

ST SIMONS      SUNNY     81  73  76 W5        30.08R
6HR MIN TEMP:  79; 6HR MAX TEMP:  83;

FT STEWART     MOSUNNY   75  73  92 CALM      30.06R
ALBANY         MOSUNNY   76  74  93 CALM      30.08R
HUNTER AFB     MOSUNNY   79  79 100 W2        30.06R
MOODY AFB      SUNNY     73  72  95 SE5       30.07R
BRUNSWICK      SUNNY     79  75  89 CALM      30.10R


CITY           SKY/WX    TMP DP  RH WIND       PRES   REMARKS
BAINBRIDGE*    SUNNY     77  73  88 CALM      30.06R
MOULTRIE*      MOSUNNY   73  72  94 CALM      30.08R FOG
VIDALIA*       SUNNY     77  72  83 S3        30.09R
WAYCROSS*      SUNNY     77  75  94 CALM      30.09R
DOUGLAS*       SUNNY     73  72  94 CALM      30.10R
$$




USA.gov is the U.S. government's official web portal to all federal, state and local government web resources and services.